Location: Augustenthal
(51.7167°N, 10.2833°E)
Time: 08:10:59
(UTC+00:00)

ALOS 2 - Pass Details

Date: 24 September 2021
Orbit: 630 x 632 km, 97.9° (Epoch: 23 October)

Event Time Altitude Azimuth Distance (km) Brightness Sun altitude
Exits shadow 23:00:12 12° 339° (NNW) 1,907 5.7 -39.1°
Drops below altitude 10° 23:00:30 10° 340° (NNW) 2,026 5.8 -39.1°
Sets 23:02:44 0° 344° (NNW) 2,939 6.9 -39.1°
